Time,TemperatureF,DewpointF,PressureIn,WindDirection,WindDirectionDegrees,WindSpeedMPH,WindSpeedGustMPH,Humidity,HourlyPrecipIn,Conditions,Clouds,dailyrainin,SolarRadiationWatts/m^2,SoftwareType,DateUTC
2013-03-21 00:14:00,14.1,10.0,30.00,West,281,0.0,2.0,85,0.00,,,0.00,0,weatherlink.com 1.10,2013-03-21 04:14:00,
2013-03-21 00:29:00,14.6,11.0,29.99,West,281,0.0,1.0,85,0.00,,,0.00,0,weatherlink.com 1.10,2013-03-21 04:29:00,
2013-03-21 00:44:00,14.9,11.0,29.99,West,281,0.0,2.0,85,0.00,,,0.00,0,weatherlink.com 1.10,2013-03-21 04:44:00,
2013-03-21 00:59:00,15.2,12.0,29.98,West,281,1.0,4.0,85,0.00,,,0.00,0,weatherlink.com 1.10,2013-03-21 04:59:00,
2013-03-21 01:14:00,15.2,12.0,29.98,West,281,0.0,3.0,86,0.00,,,0.00,0,weatherlink.com 1.10,2013-03-21 05:14:00,
2013-03-21 01:29:00,15.0,12.0,29.98,West,280,0.0,1.0,86,0.00,,,0.00,0,weatherlink.com 1.10,2013-03-21 05:29:00,
2013-03-21 01:44:00,14.9,12.0,29.97,West,280,0.0,2.0,86,0.00,,,0.00,0,weatherlink.com 1.10,2013-03-21 05:44:00,
2013-03-21 02:00:00,14.8,11.0,29.97,West,280,0.0,2.0,86,0.00,,,0.00,0,weatherlink.com 1.10,2013-03-21 06:00:00,
2013-03-21 02:15:00,14.6,11.0,29.97,West,280,0.0,0.0,86,0.00,,,0.00,0,weatherlink.com 1.10,2013-03-21 06:15:00,
2013-03-21 02:30:00,14.3,11.0,29.96,West,281,0.0,0.0,86,0.00,,,0.00,0,weatherlink.com 1.10,2013-03-21 06:30:00,
2013-03-21 02:45:00,14.1,11.0,29.97,West,281,0.0,0.0,86,0.00,,,0.00,0,weatherlink.com 1.10,2013-03-21 06:45:00,
2013-03-21 03:00:00,14.5,11.0,29.96,West,281,0.0,2.0,86,0.00,,,0.00,0,weatherlink.com 1.10,2013-03-21 07:00:00,
2013-03-21 03:15:00,15.2,12.0,29.96,West,281,0.0,2.0,87,0.00,,,0.00,0,weatherlink.com 1.10,2013-03-21 07:15:00,
2013-03-21 03:30:00,15.8,13.0,29.95,West,280,0.0,0.0,87,0.00,,,0.00,0,weatherlink.com 1.10,2013-03-21 07:30:00,
2013-03-21 03:45:00,16.2,13.0,29.95,West,281,0.0,0.0,87,0.00,,,0.00,0,weatherlink.com 1.10,2013-03-21 07:45:00,
2013-03-21 04:00:00,16.6,13.0,29.95,West,281,0.0,2.0,87,0.00,,,0.00,0,weatherlink.com 1.10,2013-03-21 08:00:00,
2013-03-21 04:15:00,16.8,14.0,29.95,West,281,0.0,0.0,87,0.00,,,0.00,0,weatherlink.com 1.10,2013-03-21 08:15:00,
2013-03-21 04:30:00,16.7,14.0,29.95,West,281,0.0,0.0,87,0.00,,,0.00,0,weatherlink.com 1.10,2013-03-21 08:30:00,
2013-03-21 04:45:00,16.6,13.0,29.94,West,281,0.0,0.0,87,0.00,,,0.00,0,weatherlink.com 1.10,2013-03-21 08:45:00,
2013-03-21 05:00:00,16.5,13.0,29.95,West,280,0.0,0.0,87,0.00,,,0.00,0,weatherlink.com 1.10,2013-03-21 09:00:00,
2013-03-21 05:15:00,16.4,13.0,29.94,West,280,0.0,0.0,87,0.00,,,0.00,0,weatherlink.com 1.10,2013-03-21 09:15:00,
2013-03-21 05:30:00,16.5,13.0,29.95,West,281,0.0,1.0,87,0.00,,,0.00,0,weatherlink.com 1.10,2013-03-21 09:30:00,
2013-03-21 05:45:00,17.1,14.0,29.94,West,281,1.0,2.0,88,0.00,,,0.00,0,weatherlink.com 1.10,2013-03-21 09:45:00,
2013-03-21 06:00:00,17.6,15.0,29.95,WNW,286,0.0,2.0,88,0.00,,,0.00,0,weatherlink.com 1.10,2013-03-21 10:00:00,
2013-03-21 06:15:00,18.2,15.0,29.94,WNW,298,1.0,4.0,88,0.00,,,0.00,0,weatherlink.com 1.10,2013-03-21 10:15:00,
2013-03-21 06:30:00,18.7,16.0,29.95,WNW,296,2.0,3.0,88,0.00,,,0.00,0,weatherlink.com 1.10,2013-03-21 10:30:00,
2013-03-21 06:45:00,19.0,16.0,29.95,WNW,300,0.0,3.0,88,0.00,,,0.00,0,weatherlink.com 1.10,2013-03-21 10:45:00,
2013-03-21 07:00:00,19.3,16.0,29.95,WNW,286,0.0,4.0,88,0.00,,,0.00,0,weatherlink.com 1.10,2013-03-21 11:00:00,
2013-03-21 07:15:00,19.7,17.0,29.95,WNW,286,0.0,3.0,88,0.00,,,0.00,0,weatherlink.com 1.10,2013-03-21 11:15:00,
2013-03-21 07:30:00,19.9,17.0,29.95,WNW,289,2.0,4.0,88,0.00,,,0.00,0,weatherlink.com 1.10,2013-03-21 11:30:00,
2013-03-21 07:45:00,20.3,17.0,29.95,WNW,295,0.0,4.0,88,0.00,,,0.00,0,weatherlink.com 1.10,2013-03-21 11:45:00,
2013-03-21 08:00:00,20.7,18.0,29.95,WNW,286,0.0,5.0,88,0.00,,,0.00,5,weatherlink.com 1.10,2013-03-21 12:00:00,
2013-03-21 08:15:00,21.1,18.0,29.95,WNW,283,3.0,6.0,88,0.00,,,0.00,21,weatherlink.com 1.10,2013-03-21 12:15:00,
2013-03-21 08:30:00,21.6,19.0,29.94,WNW,287,0.0,5.0,88,0.00,,,0.00,37,weatherlink.com 1.10,2013-03-21 12:30:00,
2013-03-21 08:45:00,22.1,19.0,29.95,WNW,292,2.0,6.0,88,0.00,,,0.00,33,weatherlink.com 1.10,2013-03-21 12:45:00,
2013-03-21 09:00:00,22.5,20.0,29.95,West,279,3.0,7.0,88,0.00,,,0.00,56,weatherlink.com 1.10,2013-03-21 13:00:00,
2013-03-21 09:15:00,23.0,20.0,29.95,WNW,294,3.0,8.0,88,0.00,,,0.00,76,weatherlink.com 1.10,2013-03-21 13:15:00,
2013-03-21 09:30:00,23.5,20.0,29.95,WNW,292,3.0,6.0,87,0.00,,,0.00,79,weatherlink.com 1.10,2013-03-21 13:30:00,
2013-03-21 09:45:00,24.0,21.0,29.96,WNW,298,2.0,11.0,87,0.00,,,0.00,120,weatherlink.com 1.10,2013-03-21 13:45:00,
2013-03-21 10:00:00,25.3,22.0,29.95,West,273,3.0,8.0,86,0.00,,,0.00,229,weatherlink.com 1.10,2013-03-21 14:00:00,
2013-03-21 10:16:00,26.5,22.0,29.95,WNW,293,1.0,10.0,82,0.00,,,0.00,236,weatherlink.com 1.10,2013-03-21 14:16:00,
2013-03-21 10:31:00,27.9,22.0,29.96,WNW,286,2.0,10.0,78,0.00,,,0.00,464,weatherlink.com 1.10,2013-03-21 14:31:00,
2013-03-21 10:46:00,29.0,22.0,29.95,West,279,1.0,12.0,74,0.00,,,0.00,330,weatherlink.com 1.10,2013-03-21 14:46:00,
2013-03-21 11:01:00,29.0,21.0,29.96,WNW,288,2.0,11.0,72,0.00,,,0.00,295,weatherlink.com 1.10,2013-03-21 15:01:00,
2013-03-21 11:16:00,29.2,21.0,29.96,WNW,296,3.0,13.0,72,0.00,,,0.00,497,weatherlink.com 1.10,2013-03-21 15:16:00,
2013-03-21 12:16:00,29.3,21.0,29.96,NNW,331,4.0,13.0,71,0.00,,,0.00,250,weatherlink.com 1.10,2013-03-21 16:16:00,
2013-03-21 13:31:00,29.7,22.0,29.97,West,279,1.0,12.0,74,0.00,,,0.00,302,weatherlink.com 1.10,2013-03-21 17:31:00,
2013-03-21 14:01:00,30.0,23.0,29.98,WNW,284,9.0,12.0,76,0.00,,,0.00,292,weatherlink.com 1.10,2013-03-21 18:01:00,
2013-03-21 14:16:00,30.0,23.0,29.98,West,269,3.0,12.0,76,0.00,,,0.00,218,weatherlink.com 1.10,2013-03-21 18:16:00,
2013-03-21 14:46:00,29.4,24.0,29.97,WNW,286,1.0,13.0,79,0.00,,,0.00,339,weatherlink.com 1.10,2013-03-21 18:46:00,
2013-03-21 15:01:00,30.1,24.0,29.97,WNW,298,2.0,12.0,79,0.00,,,0.00,278,weatherlink.com 1.10,2013-03-21 19:01:00,
2013-03-21 15:16:00,30.2,24.0,29.96,WNW,292,4.0,12.0,76,0.00,,,0.00,332,weatherlink.com 1.10,2013-03-21 19:16:00,
2013-03-21 15:31:00,30.4,23.0,29.97,West,277,4.0,14.0,75,0.00,,,0.00,156,weatherlink.com 1.10,2013-03-21 19:31:00,
2013-03-21 16:01:00,29.4,23.0,29.97,West,277,8.0,15.0,76,0.00,,,0.00,244,weatherlink.com 1.10,2013-03-21 20:01:00,
2013-03-21 16:16:00,29.2,23.0,29.97,West,281,4.0,17.0,78,0.00,,,0.00,229,weatherlink.com 1.10,2013-03-21 20:16:00,
2013-03-21 16:31:00,29.2,23.0,29.97,West,279,10.0,16.0,77,0.00,,,0.00,251,weatherlink.com 1.10,2013-03-21 20:31:00,
2013-03-21 16:46:00,29.3,23.0,29.97,NW,311,3.0,14.0,76,0.00,,,0.00,234,weatherlink.com 1.10,2013-03-21 20:46:00,
2013-03-21 17:01:00,29.6,22.0,29.97,West,268,7.0,16.0,73,0.00,,,0.00,86,weatherlink.com 1.10,2013-03-21 21:01:00,
2013-03-21 17:46:00,28.5,22.0,29.99,West,280,4.0,13.0,77,0.00,,,0.00,149,weatherlink.com 1.10,2013-03-21 21:46:00,
2013-03-21 18:01:00,28.4,22.0,29.98,West,272,4.0,14.0,77,0.00,,,0.00,135,weatherlink.com 1.10,2013-03-21 22:01:00,
2013-03-21 18:16:00,27.9,22.0,29.99,West,281,6.0,12.0,78,0.00,,,0.00,90,weatherlink.com 1.10,2013-03-21 22:16:00,
2013-03-21 18:31:00,27.6,22.0,29.99,WNW,294,4.0,11.0,79,0.00,,,0.00,63,weatherlink.com 1.10,2013-03-21 22:31:00,
2013-03-21 18:46:00,27.3,21.0,29.99,West,276,9.0,16.0,77,0.00,,,0.00,44,weatherlink.com 1.10,2013-03-21 22:46:00,
2013-03-21 19:01:00,27.2,21.0,30.00,WSW,258,4.0,16.0,76,0.00,,,0.00,30,weatherlink.com 1.10,2013-03-21 23:01:00,
2013-03-21 19:31:00,26.3,21.0,30.00,WNW,298,5.0,15.0,80,0.00,,,0.00,9,weatherlink.com 1.10,2013-03-21 23:31:00,
2013-03-21 19:46:00,26.0,20.0,30.00,WNW,286,3.0,13.0,79,0.00,,,0.00,5,weatherlink.com 1.10,2013-03-21 23:46:00,
2013-03-21 20:01:00,26.0,20.0,30.00,West,273,1.0,11.0,78,0.00,,,0.00,0,weatherlink.com 1.10,2013-03-22 00:01:00,
2013-03-21 20:16:00,26.0,20.0,30.00,WNW,287,3.0,10.0,77,0.00,,,0.00,0,weatherlink.com 1.10,2013-03-22 00:16:00,
2013-03-21 20:31:00,26.1,20.0,30.00,NW,314,2.0,10.0,77,0.00,,,0.00,0,weatherlink.com 1.10,2013-03-22 00:31:00,
2013-03-21 20:46:00,26.0,19.0,30.01,WNW,293,1.0,8.0,76,0.00,,,0.00,0,weatherlink.com 1.10,2013-03-22 00:46:00,
2013-03-21 21:01:00,26.0,19.0,30.01,West,271,5.0,8.0,75,0.00,,,0.00,0,weatherlink.com 1.10,2013-03-22 01:01:00,
2013-03-21 21:16:00,26.0,19.0,30.01,WNW,302,4.0,10.0,75,0.00,,,0.00,0,weatherlink.com 1.10,2013-03-22 01:16:00,
2013-03-21 21:31:00,25.9,19.0,30.01,NW,306,2.0,6.0,74,0.00,,,0.00,0,weatherlink.com 1.10,2013-03-22 01:31:00,
2013-03-21 21:46:00,26.0,18.0,30.01,WNW,284,2.0,8.0,73,0.00,,,0.00,0,weatherlink.com 1.10,2013-03-22 01:46:00,
2013-03-21 22:01:00,25.9,18.0,30.01,WNW,291,4.0,9.0,73,0.00,,,0.00,0,weatherlink.com 1.10,2013-03-22 02:01:00,
2013-03-21 22:16:00,25.9,19.0,30.01,West,265,5.0,8.0,74,0.00,,,0.00,0,weatherlink.com 1.10,2013-03-22 02:16:00,
2013-03-21 22:31:00,25.9,18.0,30.02,WNW,296,3.0,6.0,73,0.00,,,0.00,0,weatherlink.com 1.10,2013-03-22 02:31:00,
2013-03-21 22:46:00,25.9,18.0,30.02,WNW,295,2.0,12.0,73,0.00,,,0.00,0,weatherlink.com 1.10,2013-03-22 02:46:00,
2013-03-21 23:01:00,25.9,18.0,30.02,WNW,296,1.0,8.0,72,0.00,,,0.00,0,weatherlink.com 1.10,2013-03-22 03:01:00,
2013-03-21 23:16:00,26.0,18.0,30.02,WNW,286,2.0,6.0,71,0.00,,,0.00,0,weatherlink.com 1.10,2013-03-22 03:16:00,
2013-03-21 23:31:00,26.0,18.0,30.02,NW,309,1.0,8.0,71,0.00,,,0.00,0,weatherlink.com 1.10,2013-03-22 03:31:00,
2013-03-21 23:46:00,26.0,18.0,30.02,West,279,1.0,8.0,71,0.00,,,0.00,0,weatherlink.com 1.10,2013-03-22 03:46:00,